Weather History for Pine Ridge, SD

Change the Weather History Date:

Tuesday, January 8, 2013

  Actual Average Record
Temperature  
Mean Temperature 29 °F 23 °F  
Max Temperature 43 °F 37 °F 63 °F (2002)
Min Temperature 15 °F 9 °F -2 °F (1999)
Degree Days  
Heating Degree Days 36 42  
Month to date heating degree days 360 337  
Since 1 July heating degree days 3163 3327  
Cooling Degree Days 0 0  
Month to date cooling degree days 0 0  
Year to date cooling degree days 0 0  
Moisture  
Dew Point 22 °F    
Average Humidity 65    
Maximum Humidity 84    
Minimum Humidity 45    
Precipitation  
Precipitation 0.00 in 0.01 in 0.07 in (2011)
Month to date precipitation 0.10 0.07  
Year to date precipitation 0.10 0.07  
Sea Level Pressure  
Sea Level Pressure 29.95 in    
Wind  
Wind Speed 8 mph (West)    
Max Wind Speed 21 mph    
Max Gust Speed 28 mph    
Visibility 10 miles    
Events      
T = Trace of Precipitation, MM = Missing Value Source: NWS Daily Summary

Daily Weather History Graph

Daily Weather History Graph

Search for Another Location

Airport:

Trip Planner

Search our weather history database for the weather conditions in past years. The results will help you decide how hot, cold, wet, or windy it might be!

Date:

Astronomy

Jan. 08, 2013 Rise Set
Actual Time 7:20 AM MST 4:33 PM MST
Civil Twilight 6:49 AM MST 5:05 PM MST
Nautical Twilight 6:13 AM MST 5:40 PM MST
Astronomical Twilight 5:39 AM MST 6:14 PM MST
Moon 3:55 AM MST (1/8) 1:37 PM MST (1/8)
Length of Visible Light 10h 16m
Length of Day
9h 12m
Waning Crescent, 13% of the Moon is Illuminated
Jan 8
Waning Crescent
Jan 11
New
Jan 18
First Quarter
Jan 26
Full
Feb 3
Last Quarter

Hourly Weather History & Observations

Time (MST) Temp. Windchill Dew Point Humidity Pressure Visibility Wind Dir Wind Speed Gust Speed Precip Events Conditions
12:52 AM 32.0 °F 20.8 °F 19.9 °F 61% 29.73 in 10.0 mi South 17.3 mph - N/A   Clear
1:52 AM 30.9 °F 23.5 °F 19.9 °F 64% 29.73 in 10.0 mi SW 8.1 mph - N/A   Clear
2:52 AM 30.9 °F 21.7 °F 19.9 °F 64% 29.74 in 10.0 mi SW 11.5 mph - N/A   Clear
3:52 AM 32.0 °F 26.4 °F 19.0 °F 59% 29.75 in 10.0 mi Variable 5.8 mph - N/A   Partly Cloudy
4:52 AM 33.1 °F 26.1 °F 19.0 °F 56% 29.78 in 10.0 mi West 8.1 mph - N/A   Clear
5:52 AM 33.1 °F 23.9 °F 21.0 °F 61% 29.81 in 10.0 mi West 12.7 mph - N/A   Overcast
6:52 AM 34.0 °F 29.8 °F 21.9 °F 61% 29.85 in 10.0 mi SSW 4.6 mph - N/A   Overcast
7:52 AM 34.0 °F 27.2 °F 23.0 °F 64% 29.86 in 10.0 mi WSW 8.1 mph - N/A   Overcast
8:52 AM 36.0 °F 30.3 °F 24.1 °F 62% 29.89 in 10.0 mi WSW 6.9 mph - N/A   Overcast
9:52 AM 37.9 °F 30.9 °F 23.0 °F 55% 29.92 in 10.0 mi West 10.4 mph - N/A   Mostly Cloudy
10:52 AM 39.0 °F 33.4 °F 24.1 °F 55% 29.92 in 10.0 mi West 8.1 mph - N/A   Mostly Cloudy
11:52 AM 39.0 °F 36.8 °F 25.0 °F 57% 29.91 in 10.0 mi WSW 3.5 mph - N/A   Overcast
12:52 PM 42.1 °F 37.1 °F 25.0 °F 51% 29.91 in 10.0 mi West 8.1 mph - N/A   Scattered Clouds
1:52 PM 43.0 °F 35.7 °F 26.1 °F 51% 29.93 in 10.0 mi West 15.0 mph - N/A   Mostly Cloudy
2:52 PM 42.1 °F 35.2 °F 25.0 °F 51% 29.97 in 10.0 mi West 12.7 mph 19.6 mph N/A   Overcast
3:52 PM 42.1 °F 33.3 °F 23.0 °F 47% 29.99 in 10.0 mi WNW 19.6 mph 26.5 mph N/A   Overcast
4:52 PM 39.0 °F 34.8 °F 25.0 °F 57% 30.03 in 10.0 mi NW 5.8 mph - N/A   Scattered Clouds
5:52 PM 35.1 °F 31.0 °F 24.1 °F 64% 30.07 in 10.0 mi WNW 4.6 mph - N/A   Clear
6:52 PM 34.0 °F 29.8 °F 23.0 °F 64% 30.12 in 10.0 mi NNW 4.6 mph - N/A   Clear
7:52 PM 26.1 °F - 19.9 °F 78% 30.17 in 10.0 mi Calm Calm - N/A   Clear
8:52 PM 21.9 °F - 18.0 °F 85% 30.19 in 10.0 mi Calm Calm - N/A   Clear
9:52 PM 19.0 °F 12.3 °F 16.0 °F 88% 30.22 in 10.0 mi East 4.6 mph - N/A   Clear
10:52 PM 19.0 °F 11.1 °F 16.0 °F 88% 30.25 in 10.0 mi ENE 5.8 mph - N/A   Clear